TimeCEST,TemperatureF,Dew PointF,Humidity,Sea Level PressureIn,VisibilityMPH,Wind Direction,Wind SpeedMPH,Gust SpeedMPH,PrecipitationIn,Events,Conditions,WindDirDegrees,DateUTC
12:00 AM,50,50,98,30.37,3,NNW,2.2,,,Fog,Fog,330,2013-09-21 22:00:00
1:00 AM,50,50,100,30.38,3,WNW,2.2,,,Fog,Fog,290,2013-09-21 23:00:00
2:00 AM,48,48,100,30.38,5,WNW,2.2,,,Fog,Fog,290,2013-09-22 00:00:00
3:00 AM,48,48,99,30.38,3,North,2.2,,,Fog,Fog,350,2013-09-22 01:00:00
4:00 AM,47,47,99,30.38,1,North,2.2,,,Fog,Fog,0,2013-09-22 02:00:00
6:00 AM,46,46,100,30.38,0,NNW,2.2,,,Fog,Partial Fog,340,2013-09-22 04:00:00
7:00 AM,45,45,98,30.39,0,NNE,2.2,,,Fog,Partial Fog,30,2013-09-22 05:00:00
8:00 AM,45,45,100,30.40,0,ENE,2.2,,,Fog,Partial Fog,70,2013-09-22 06:00:00
9:00 AM,49,49,100,30.40,2,North,2.2,,,Fog,Light Fog,10,2013-09-22 07:00:00
9:20 AM,53.6,53.6,100,30.39,2.5,Variable,1.2,-,N/A,,Mist,0,2013-09-22 07:20:00
9:50 AM,53.6,53.6,100,30.39,2.5,West,2.3,-,N/A,,Partly Cloudy,280,2013-09-22 07:50:00
10:00 AM,55,53,89,30.40,3,West,2.2,,,Fog,Light Fog,260,2013-09-22 08:00:00
10:20 AM,55.4,53.6,94,30.39,2.5,Variable,2.3,-,N/A,,Mostly Cloudy,0,2013-09-22 08:20:00
10:50 AM,57.2,53.6,88,30.39,3.7,West,2.3,-,N/A,,Mostly Cloudy,260,2013-09-22 08:50:00
11:00 AM,56,53,84,30.41,6,West,2.2,,,,Partly Cloudy,260,2013-09-22 09:00:00
11:20 AM,57.2,53.6,88,30.39,5.6,WNW,2.3,-,N/A,,Mostly Cloudy,300,2013-09-22 09:20:00
11:50 AM,59.0,53.6,82,30.39,6.2,Variable,2.3,-,N/A,,Scattered Clouds,0,2013-09-22 09:50:00
12:00 PM,60,54,75,30.40,11,WSW,2.2,,,,Scattered Clouds,240,2013-09-22 10:00:00
12:20 PM,62.6,55.4,77,30.39,6.2,Variable,2.3,-,N/A,,Partly Cloudy,0,2013-09-22 10:20:00
1:50 PM,66.2,55.4,68,30.36,-9999.0,Variable,3.5,-,N/A,,Clear,0,2013-09-22 11:50:00
2:00 PM,66,55,60,30.37,16,NNW,4.5,,,,Partly Cloudy,340,2013-09-22 12:00:00
2:20 PM,66.2,55.4,68,30.36,-9999.0,Variable,3.5,-,N/A,,Clear,0,2013-09-22 12:20:00
2:50 PM,66.2,51.8,60,30.36,-9999.0,NNW,3.5,-,N/A,,Clear,330,2013-09-22 12:50:00
3:00 PM,68,56,55,30.35,19,ENE,4.5,,,,Scattered Clouds,60,2013-09-22 13:00:00
3:20 PM,68.0,51.8,56,30.36,6.2,North,4.6,-,N/A,,Partly Cloudy,10,2013-09-22 13:20:00
3:50 PM,68.0,53.6,60,30.33,6.2,NNW,3.5,-,N/A,,Partly Cloudy,330,2013-09-22 13:50:00
4:00 PM,69,54,49,30.34,25,North,4.5,,,,Scattered Clouds,350,2013-09-22 14:00:00
5:00 PM,69,52,44,30.33,25,North,6.7,,,,Scattered Clouds,10,2013-09-22 15:00:00
6:00 PM,68,53,49,30.32,28,NNE,6.7,,,,Scattered Clouds,30,2013-09-22 16:00:00
7:00 PM,65,54,58,30.32,28,NNE,6.7,,,,Clear,30,2013-09-22 17:00:00
8:00 PM,60,53,72,30.33,28,ENE,4.5,,,,Clear,70,2013-09-22 18:00:00
9:00 PM,56,52,81,30.34,19,North,2.2,,,,Clear,10,2013-09-22 19:00:00
10:00 PM,53,51,92,30.35,10,Calm,Calm,,,,,,2013-09-22 20:00:00
11:00 PM,53,52,93,30.36,14,NNW,2.2,,,,,340,2013-09-22 21:00:00